Danville, KY

6:41 AM EDT on April 25, 2017 (GMT -0400)
Powell

Weather History for KDVK - January, 2014

Change the Weather History Date:

Monday, January 27, 2014

  Actual Average (KLEX) Record (KLEX)
Temperature  
Mean Temperature 28 °F -  
Max Temperature 46 °F 38 °F 74 °F (1944)
Min Temperature 10 °F 22 °F -15 °F (1936)
Degree Days  
Heating Degree Days 37    
Moisture  
Dew Point 9 °F    
Average Humidity 55    
Maximum Humidity 87    
Minimum Humidity 39    
Precipitation  
Precipitation 0.00 in - - ()
Sea Level Pressure  
Sea Level Pressure 30.10 in    
Wind  
Wind Speed 12 mph (NNW)    
Max Wind Speed 20 mph    
Max Gust Speed 33 mph    
Visibility 10 miles    
Events Snow    
Averages and records for this station are not official NWS values.
T = Trace of Precipitation, MM = Missing Value Source: NWS Daily Summary

Daily Weather History Graph

Daily Weather History Graph

Search for Another Location

Airport or City:

Trip Planner

Search our weather history database for the weather conditions in past years. The results will help you decide how hot, cold, wet, or windy it might be!

Date:

Astronomy

Jan. 27, 2014 Rise Set
Actual Time 7:46 AM EST 5:57 PM EST
Civil Twilight 7:18 AM EST 6:25 PM EST
Nautical Twilight 6:47 AM EST 6:57 PM EST
Astronomical Twilight 6:16 AM EST 7:27 PM EST
Moon 4:26 AM EST (1/27) 2:43 PM EST (1/27)
Length of Visible Light 11h 06m
Length of Day
10h 11m
Waning Crescent, 15% of the Moon is Illuminated
Jan 27
Waning Crescent
Jan 30
New
Feb 6
First Quarter
Feb 14
Full
Feb 22
Last Quarter

Hourly Weather History & Observations

Time (EST) Temp. Windchill Dew Point Humidity Pressure Visibility Wind Dir Wind Speed Gust Speed Precip Events Conditions
12:15 AM 44.6 °F 38.1 °F 32.0 °F 61% 29.69 in 10.0 mi SW 13.8 mph 19.6 mph N/A   Clear
12:35 AM 44.6 °F 38.4 °F 32.0 °F 61% 29.69 in 10.0 mi SW 12.7 mph 21.9 mph N/A   Clear
12:55 AM 44.6 °F 38.8 °F 32.0 °F 61% 29.70 in 10.0 mi SW 11.5 mph - N/A   Scattered Clouds
1:15 AM 44.6 °F 39.7 °F 32.0 °F 61% 29.70 in 10.0 mi WSW 9.2 mph - N/A   Clear
1:35 AM 44.6 °F 38.4 °F 32.0 °F 61% 29.71 in 10.0 mi WSW 12.7 mph 18.4 mph N/A   Clear
1:55 AM 44.6 °F 38.1 °F 32.0 °F 61% 29.71 in 10.0 mi WSW 13.8 mph 19.6 mph N/A   Mostly Cloudy
2:15 AM 44.6 °F 38.4 °F 32.0 °F 61% 29.71 in 10.0 mi WSW 12.7 mph 20.7 mph N/A   Overcast
2:35 AM 44.6 °F 38.4 °F 32.0 °F 61% 29.72 in 10.0 mi WSW 12.7 mph 20.7 mph N/A   Overcast
2:55 AM 44.6 °F 38.1 °F 32.0 °F 61% 29.73 in 10.0 mi WSW 13.8 mph 18.4 mph N/A   Overcast
3:15 AM 44.6 °F 38.8 °F 32.0 °F 61% 29.73 in 10.0 mi WSW 11.5 mph 17.3 mph N/A   Overcast
3:35 AM 44.6 °F 39.2 °F 32.0 °F 61% 29.74 in 10.0 mi West 10.4 mph 18.4 mph N/A   Overcast
3:55 AM 46.4 °F 40.1 °F 32.0 °F 57% 29.75 in 10.0 mi West 15.0 mph 19.6 mph N/A   Overcast
4:15 AM 44.6 °F 36.6 °F 32.0 °F 61% 29.79 in 10.0 mi NNW 19.6 mph 28.8 mph N/A   Mostly Cloudy
4:35 AM 33.8 °F 22.5 °F 30.2 °F 87% 29.84 in 10.0 mi NNW 19.6 mph 33.4 mph N/A   Mostly Cloudy
4:55 AM 32.0 °F 21.2 °F 28.4 °F 87% 29.87 in 10.0 mi NNW 16.1 mph 26.5 mph N/A   Mostly Cloudy
5:15 AM 32.0 °F 20.1 °F 26.6 °F 80% 29.91 in 10.0 mi North 19.6 mph 25.3 mph N/A   Overcast
5:35 AM 30.2 °F 17.8 °F 26.6 °F 86% 29.93 in 10.0 mi NNW 19.6 mph 24.2 mph N/A   Overcast
5:55 AM 28.4 °F 17.0 °F 24.8 °F 86% 29.95 in 10.0 mi North 15.0 mph - N/A Snow Light Snow
6:15 AM 28.4 °F 16.6 °F 21.2 °F 74% 29.97 in 10.0 mi NW 16.1 mph 19.6 mph N/A   Overcast
6:35 AM 26.6 °F 16.2 °F 17.6 °F 69% 29.99 in 10.0 mi NW 11.5 mph 18.4 mph N/A   Overcast
6:55 AM 24.8 °F 11.9 °F 14.0 °F 64% 30.01 in 10.0 mi NNW 16.1 mph - N/A   Overcast
7:15 AM 23.0 °F 10.1 °F 10.4 °F 59% 30.03 in 10.0 mi NNW 15.0 mph 23.0 mph N/A   Overcast
7:35 AM 23.0 °F 9.6 °F 12.2 °F 63% 30.06 in 10.0 mi North 16.1 mph 19.6 mph N/A   Overcast
7:55 AM 21.2 °F 8.9 °F 8.6 °F 58% 30.07 in 10.0 mi North 12.7 mph 21.9 mph N/A   Overcast
8:15 AM 21.2 °F 8.9 °F 8.6 °F 58% 30.09 in 10.0 mi NNW 12.7 mph 19.6 mph N/A   Overcast
8:35 AM 21.2 °F 7.8 °F 5.0 °F 50% 30.11 in 10.0 mi North 15.0 mph 21.9 mph N/A   Overcast
8:55 AM 21.2 °F 10.1 °F 3.2 °F 46% 30.12 in 10.0 mi NNW 10.4 mph - N/A   Overcast
9:15 AM 21.2 °F 8.3 °F 3.2 °F 46% 30.13 in 10.0 mi NNW 13.8 mph 19.6 mph N/A   Overcast
9:35 AM 21.2 °F 9.5 °F 3.2 °F 46% 30.15 in 10.0 mi NNW 11.5 mph 18.4 mph N/A   Overcast
9:55 AM 19.4 °F 7.2 °F 3.2 °F 49% 30.16 in 10.0 mi North 11.5 mph - N/A   Overcast
10:15 AM 19.4 °F 7.9 °F 3.2 °F 49% 30.17 in 10.0 mi North 10.4 mph - N/A   Overcast
10:35 AM 19.4 °F 7.2 °F 3.2 °F 49% 30.18 in 10.0 mi NNE 11.5 mph - N/A   Mostly Cloudy
10:55 AM 19.4 °F 8.6 °F 1.4 °F 46% 30.19 in 10.0 mi North 9.2 mph - N/A   Scattered Clouds
11:15 AM 19.4 °F 7.9 °F 3.2 °F 49% 30.19 in 10.0 mi North 10.4 mph - N/A   Scattered Clouds
11:35 AM 19.4 °F 7.9 °F 3.2 °F 49% 30.20 in 10.0 mi NNE 10.4 mph - N/A   Mostly Cloudy
11:55 AM 19.4 °F 9.5 °F 3.2 °F 49% 30.20 in 10.0 mi North 8.1 mph - N/A   Scattered Clouds
12:15 PM 21.2 °F 10.9 °F 3.2 °F 46% 30.20 in 10.0 mi North 9.2 mph - N/A   Scattered Clouds
12:35 PM 21.2 °F 10.9 °F 3.2 °F 46% 30.20 in 10.0 mi North 9.2 mph - N/A   Scattered Clouds
12:55 PM 21.2 °F 10.9 °F 3.2 °F 46% 30.20 in 10.0 mi North 9.2 mph - N/A   Scattered Clouds
1:15 PM 21.2 °F 10.1 °F 1.4 °F 42% 30.19 in 10.0 mi North 10.4 mph - N/A   Clear
1:35 PM 21.2 °F 10.9 °F 1.4 °F 42% 30.19 in 10.0 mi NW 9.2 mph - N/A   Clear
1:55 PM 21.2 °F 11.7 °F 1.4 °F 42% 30.18 in 10.0 mi NW 8.1 mph - N/A   Clear
2:15 PM 21.2 °F 10.9 °F 1.4 °F 42% 30.18 in 10.0 mi NW 9.2 mph - N/A   Clear
2:35 PM 21.2 °F 10.1 °F 1.4 °F 42% 30.19 in 10.0 mi WNW 10.4 mph - N/A   Clear
2:55 PM 21.2 °F 9.5 °F -0.4 °F 39% 30.19 in 10.0 mi NW 11.5 mph - N/A   Clear
3:15 PM 19.4 °F 11.5 °F -2.2 °F 39% 30.19 in 10.0 mi NNW 5.8 mph 9.2 mph N/A   Scattered Clouds
3:35 PM 19.4 °F 8.6 °F -0.4 °F 42% 30.20 in 10.0 mi NW 9.2 mph - N/A   Scattered Clouds
3:55 PM 19.4 °F 10.4 °F -0.4 °F 42% 30.20 in 10.0 mi NNW 6.9 mph - N/A   Clear
4:15 PM 19.4 °F 9.5 °F 1.4 °F 46% 30.19 in 10.0 mi WNW 8.1 mph - N/A   Clear
4:35 PM 21.2 °F 10.9 °F 1.4 °F 42% 30.21 in 10.0 mi NNW 9.2 mph - N/A   Clear
4:55 PM 19.4 °F 9.5 °F -0.4 °F 42% 30.22 in 10.0 mi NW 8.1 mph - N/A   Clear
5:15 PM 17.6 °F 8.2 °F -2.2 °F 42% 30.22 in 10.0 mi WNW 6.9 mph - N/A   Clear
5:35 PM 17.6 °F 7.3 °F -2.2 °F 42% 30.23 in 10.0 mi WNW 8.1 mph - N/A   Clear
5:55 PM 17.6 °F 8.2 °F -2.2 °F 42% 30.24 in 10.0 mi NW 6.9 mph - N/A   Clear
6:15 PM 17.6 °F 8.2 °F -2.2 °F 42% 30.25 in 10.0 mi NW 6.9 mph - N/A   Clear
6:35 PM 17.6 °F 8.2 °F -2.2 °F 42% 30.26 in 10.0 mi NW 6.9 mph - N/A   Clear
6:55 PM 17.6 °F 8.2 °F -0.4 °F 45% 30.27 in 10.0 mi NW 6.9 mph - N/A   Clear
7:15 PM 15.8 °F 7.2 °F -0.4 °F 49% 30.28 in 10.0 mi NNW 5.8 mph - N/A   Clear
7:35 PM 14.0 °F 2.0 °F -0.4 °F 53% 30.29 in 10.0 mi North 9.2 mph - N/A   Clear
7:55 PM 14.0 °F 3.9 °F -2.2 °F 49% 30.30 in 10.0 mi North 6.9 mph - N/A   Clear
8:15 PM 12.2 °F 0.7 °F -0.4 °F 57% 30.31 in 10.0 mi NNW 8.1 mph - N/A   Clear
8:35 PM 12.2 °F 0.7 °F -0.4 °F 57% 30.32 in 10.0 mi NNW 8.1 mph - N/A   Clear
8:55 PM 12.2 °F 0.7 °F -0.4 °F 57% 30.33 in 10.0 mi North 8.1 mph - N/A   Clear
9:15 PM 12.2 °F 1.7 °F -0.4 °F 57% 30.33 in 10.0 mi North 6.9 mph - N/A   Clear
9:35 PM 12.2 °F 2.9 °F -0.4 °F 57% 30.34 in 10.0 mi NNW 5.8 mph - N/A   Clear
9:55 PM 12.2 °F 2.9 °F -0.4 °F 57% 30.34 in 10.0 mi NNW 5.8 mph - N/A   Clear
10:15 PM 12.2 °F 2.9 °F -0.4 °F 57% 30.34 in 10.0 mi NNW 5.8 mph - N/A   Clear
10:35 PM 12.2 °F 2.9 °F 1.4 °F 62% 30.34 in 10.0 mi NNW 5.8 mph - N/A   Clear
10:55 PM 12.2 °F 1.7 °F -0.4 °F 57% 30.36 in 10.0 mi NNW 6.9 mph - N/A   Clear
11:15 PM 12.2 °F -0.2 °F -0.4 °F 57% 30.37 in 10.0 mi North 9.2 mph - N/A   Clear
11:35 PM 10.4 °F -3.3 °F -0.4 °F 62% 30.38 in 10.0 mi North 10.4 mph 16.1 mph N/A   Clear
11:55 PM 10.4 °F -2.4 °F -0.4 °F 62% 30.37 in 10.0 mi North 9.2 mph - N/A   Clear